Cortland County-chase Field, NY

6:39 AM EDT on September 20, 2019 (GMT -0400)
Cortland County-chase Field

Weather History for KN03 - August, 2019

Change the Weather History Date:

Sunday, August 25, 2019

  Actual Average (KITH) Record (KITH)
Temperature  
Mean Temperature 58 °F -  
Max Temperature 71 °F 76 °F 94 °F (1954)
Min Temperature 44 °F 54 °F 35 °F (1940)
Degree Days  
Heating Degree Days 8    
Growing Degree Days 8 (Base 50)    
Moisture  
Dew Point 51 °F    
Average Humidity 79    
Maximum Humidity 100    
Minimum Humidity 50    
Precipitation  
Precipitation 0.00 in - - ()
Sea Level Pressure  
Sea Level Pressure 30.30 in    
Wind  
Wind Speed 2 mph (East)    
Max Wind Speed 9 mph    
Max Gust Speed -    
Visibility 9 miles    
Events Fog    
Averages and records for this station are not official NWS values.
T = Trace of Precipitation, MM = Missing Value Source: NWS Daily Summary

Daily Weather History Graph

Daily Weather History Graph

Search for Another Location

Airport or City:

Astronomy

Aug. 25, 2019 Rise Set
Actual Time 6:22 AM EDT 7:51 PM EDT
Civil Twilight 5:52 AM EDT 8:20 PM EDT
Nautical Twilight 5:16 AM EDT 8:56 PM EDT
Astronomical Twilight 4:38 AM EDT 9:33 PM EDT
Moon 12:51 AM EDT (8/25) 4:14 PM EDT (8/25)
Length of Visible Light 14h 28m
Length of Day
13h 29m
Waning Crescent, 29% of the Moon is Illuminated
Aug 25
Waning Crescent
Aug 30
New
Sep 5
First Quarter
Sep 14
Full
Sep 21
Last Quarter

Hourly Weather History & Observations

Time (EDT) Temp. Dew Point Humidity Pressure Visibility Wind Dir Wind Speed Gust Speed Precip Events Conditions
12:15 AM 51.8 °F 51.8 °F 100% 30.31 in 10.0 mi Calm Calm - N/A   Clear
12:35 AM 51.8 °F 50.0 °F 94% 30.31 in 10.0 mi Calm Calm - N/A   Clear
12:55 AM 50.0 °F 50.0 °F 100% 30.31 in 10.0 mi Calm Calm - N/A   Clear
1:15 AM 50.0 °F 50.0 °F 100% 30.31 in 10.0 mi NNE 3.5 mph - N/A   Clear
1:35 AM 50.0 °F 50.0 °F 100% 30.31 in 10.0 mi Calm Calm - N/A   Clear
1:55 AM 50.0 °F 50.0 °F 100% 30.31 in 10.0 mi Calm Calm - N/A   Clear
2:15 AM 50.0 °F 50.0 °F 100% 30.30 in 10.0 mi Calm Calm - N/A   Clear
2:35 AM 48.2 °F 48.2 °F 100% 30.30 in 10.0 mi Calm Calm - N/A   Clear
2:55 AM 48.2 °F 48.2 °F 100% 30.30 in 10.0 mi Calm Calm - N/A   Clear
3:15 AM 48.2 °F 48.2 °F 100% 30.29 in 10.0 mi Calm Calm - N/A   Clear
3:35 AM 46.4 °F 46.4 °F 100% 30.29 in 10.0 mi Calm Calm - N/A   Clear
3:55 AM 46.4 °F 46.4 °F 100% 30.30 in 10.0 mi Calm Calm - N/A   Clear
4:15 AM 46.4 °F 46.4 °F 100% 30.30 in 10.0 mi Calm Calm - N/A   Scattered Clouds
4:35 AM 46.4 °F 46.4 °F 100% 30.30 in 2.5 mi Calm Calm - N/A   Mostly Cloudy
4:55 AM 46.4 °F 46.4 °F 100% 30.30 in 3.0 mi Calm Calm - N/A   Scattered Clouds
5:15 AM 46.4 °F 46.4 °F 100% 30.30 in 4.0 mi Calm Calm - N/A   Mostly Cloudy
5:35 AM 46.4 °F 46.4 °F 100% 30.31 in 3.0 mi Calm Calm - N/A   Overcast
5:55 AM 46.4 °F 46.4 °F 100% 30.32 in 5.0 mi Calm Calm - N/A   Overcast
6:15 AM 46.4 °F 46.4 °F 100% 30.32 in 0.5 mi Calm Calm - N/A Fog Fog
6:35 AM 44.6 °F 44.6 °F 100% 30.33 in 10.0 mi Calm Calm - N/A   Overcast
6:55 AM 46.4 °F 46.4 °F 100% 30.33 in 10.0 mi Calm Calm - N/A   Scattered Clouds
7:15 AM 46.4 °F 46.4 °F 100% 30.34 in 7.0 mi Calm Calm - N/A   Mostly Cloudy
7:35 AM 46.4 °F 46.4 °F 100% 30.34 in 10.0 mi Calm Calm - N/A   Scattered Clouds
7:55 AM 48.2 °F 48.2 °F 100% 30.35 in 10.0 mi Calm Calm - N/A   Clear
8:15 AM 50.0 °F 50.0 °F 100% 30.35 in 10.0 mi Calm Calm - N/A   Clear
8:35 AM 51.8 °F 51.8 °F 100% 30.34 in 10.0 mi NE 3.5 mph - N/A   Clear
8:55 AM 55.4 °F 53.6 °F 94% 30.35 in 10.0 mi Calm Calm - N/A   Clear
9:15 AM 59.0 °F 53.6 °F 82% 30.35 in 10.0 mi Calm Calm - N/A   Clear
9:35 AM 62.6 °F 55.4 °F 77% 30.34 in 10.0 mi Calm Calm - N/A   Clear
9:55 AM 64.4 °F 55.4 °F 73% 30.34 in 10.0 mi South 5.8 mph - N/A   Scattered Clouds
10:15 AM 64.4 °F 55.4 °F 73% 30.34 in 10.0 mi East 5.8 mph - N/A   Mostly Cloudy
10:35 AM 64.4 °F 55.4 °F 73% 30.35 in 10.0 mi SE 4.6 mph - N/A   Overcast
10:55 AM 64.4 °F 53.6 °F 68% 30.34 in 10.0 mi ESE 6.9 mph - N/A   Overcast
11:15 AM 68.0 °F 53.6 °F 60% 30.34 in 10.0 mi SSE 3.5 mph - N/A   Overcast
11:35 AM 68.0 °F 53.6 °F 60% 30.34 in 10.0 mi South 3.5 mph - N/A   Mostly Cloudy
11:55 AM 66.2 °F 53.6 °F 64% 30.33 in 10.0 mi Calm Calm - N/A   Scattered Clouds
12:15 PM 69.8 °F 53.6 °F 56% 30.32 in 10.0 mi SE 3.5 mph - N/A   Mostly Cloudy
12:35 PM 69.8 °F 53.6 °F 56% 30.31 in 10.0 mi SE 4.6 mph - N/A   Mostly Cloudy
12:55 PM 69.8 °F 53.6 °F 56% 30.31 in 10.0 mi ENE 6.9 mph - N/A   Mostly Cloudy
1:15 PM 69.8 °F 53.6 °F 56% 30.30 in 10.0 mi East 8.1 mph - N/A   Scattered Clouds
1:35 PM 69.8 °F 53.6 °F 56% 30.30 in 10.0 mi East 8.1 mph - N/A   Mostly Cloudy
1:55 PM 69.8 °F 51.8 °F 53% 30.29 in 10.0 mi NE 5.8 mph - N/A   Overcast
2:15 PM 71.6 °F 53.6 °F 53% 30.29 in 10.0 mi East 8.1 mph - N/A   Overcast
2:35 PM 69.8 °F 51.8 °F 53% 30.28 in 10.0 mi East 8.1 mph - N/A   Mostly Cloudy
2:55 PM 71.6 °F 51.8 °F 50% 30.27 in 10.0 mi Calm Calm - N/A   Scattered Clouds
3:15 PM 69.8 °F 51.8 °F 53% 30.27 in 10.0 mi ENE 9.2 mph - N/A   Mostly Cloudy
3:35 PM 69.8 °F 51.8 °F 53% 30.28 in 10.0 mi NE 6.9 mph - N/A   Overcast
3:55 PM 69.8 °F 51.8 °F 53% 30.26 in 10.0 mi East 8.1 mph - N/A   Mostly Cloudy
4:15 PM 69.8 °F 51.8 °F 53% 30.26 in 10.0 mi East 4.6 mph - N/A   Mostly Cloudy
4:35 PM 69.8 °F 53.6 °F 56% 30.26 in 10.0 mi East 8.1 mph - N/A   Overcast
4:55 PM 69.8 °F 53.6 °F 56% 30.26 in 10.0 mi East 4.6 mph - N/A   Overcast
5:15 PM 69.8 °F 53.6 °F 56% 30.26 in 10.0 mi East 5.8 mph - N/A   Overcast
5:35 PM 69.8 °F 51.8 °F 53% 30.26 in 5.0 mi ESE 3.5 mph - N/A   Haze
5:55 PM 68.0 °F 51.8 °F 56% 30.26 in 7.0 mi Calm Calm - N/A   Mostly Cloudy
6:15 PM 68.0 °F 55.4 °F 64% 30.25 in 10.0 mi Calm Calm - N/A   Scattered Clouds
6:35 PM 69.8 °F 51.8 °F 53% 30.26 in 10.0 mi ESE 3.5 mph - N/A   Mostly Cloudy
6:55 PM 69.8 °F 51.8 °F 53% 30.26 in 10.0 mi East 5.8 mph - N/A   Mostly Cloudy
7:15 PM 68.0 °F 51.8 °F 56% 30.26 in 7.0 mi East 3.5 mph - N/A   Scattered Clouds
7:35 PM 66.2 °F 51.8 °F 60% 30.26 in 10.0 mi East 3.5 mph - N/A   Scattered Clouds
7:55 PM 64.4 °F 51.8 °F 64% 30.26 in 10.0 mi East 3.5 mph - N/A   Mostly Cloudy
8:15 PM 62.6 °F 51.8 °F 68% 30.26 in 10.0 mi Calm Calm - N/A   Scattered Clouds
8:35 PM 60.8 °F 51.8 °F 72% 30.26 in 10.0 mi NNE 3.5 mph - N/A   Clear
8:55 PM 59.0 °F 51.8 °F 77% 30.26 in 10.0 mi Calm Calm - N/A   Clear
9:15 PM 55.4 °F 51.8 °F 88% 30.27 in 10.0 mi Calm Calm - N/A   Clear
9:35 PM 55.4 °F 51.8 °F 88% 30.26 in 10.0 mi Calm Calm - N/A   Clear
9:55 PM 53.6 °F 51.8 °F 94% 30.27 in 10.0 mi Calm Calm - N/A   Clear
10:15 PM 53.6 °F 51.8 °F 94% 30.27 in 10.0 mi Calm Calm - N/A   Clear
10:35 PM 53.6 °F 51.8 °F 94% 30.26 in 10.0 mi Calm Calm - N/A   Clear
10:55 PM 51.8 °F 51.8 °F 100% 30.27 in 10.0 mi Calm Calm - N/A   Clear
11:15 PM 51.8 °F 50.0 °F 94% 30.27 in 10.0 mi Calm Calm - N/A   Clear
11:35 PM 51.8 °F 51.8 °F 100% 30.26 in 10.0 mi Calm Calm - N/A   Clear
11:55 PM 51.8 °F 50.0 °F 94% 30.26 in 10.0 mi Calm Calm - N/A   Clear